ANACAPA ISLAND CA US current weather conditions

sailwx.info

Wind from 307 at 6 knots gusting 13

Air temperature 17.2° C
Dewpoint 15.2° C

Last reported at 2016-Aug-27 07:23 UTC.
Time now 2016-Aug-27 08:11 UTC

Location: N 34°01' W 119°22'.
View on Google Maps.

See reports from other nearby stations

  
Tides and Currents Weather Stations Pressure Air Temp Water Temp Dewpoint Dewpoint Depression Visibility Wind Speed Wind Dir Waves Ship Positions
date/time (UTC)wind fromknots sea level pressurealtimeterstation pressurevisibilityair tempwater tempwave heightnotes
2016-Aug-27 07:23 307 6 gusting 13 17.2
2016-Aug-27 06:23 295 6 gusting 13 17.2
2016-Aug-27 05:23 305 8 gusting 15 16.7
2016-Aug-27 04:23 309 8 gusting 14 16.7
2016-Aug-27 03:23 307 9 gusting 13 17.2
2016-Aug-27 02:23 305 7 gusting 13 17.2
2016-Aug-27 01:23 307 6 gusting 10 18.3
2016-Aug-27 00:23 308 6 gusting 10 18.3
2016-Aug-26 23:23 308 5 gusting 7 18.9
2016-Aug-26 22:23 291 2 gusting 8 21.7
2016-Aug-26 21:23 277 3 gusting 8 21.1
2016-Aug-26 20:23 297 3 gusting 8 21.1
2016-Aug-26 19:23 050 2 gusting 7 20.6
2016-Aug-26 18:23 305 1 gusting 5 20.0
2016-Aug-26 17:23 141 1 gusting 4 19.4
2016-Aug-26 16:23 055 2 gusting 4 17.8
2016-Aug-26 15:23 005 2 gusting 4 17.8
2016-Aug-26 14:23 015 3 gusting 5 17.2
2016-Aug-26 13:23 355 3 gusting 6 17.2
2016-Aug-26 12:23 008 1 gusting 5 16.7
2016-Aug-26 11:23 058 3 gusting 5 16.7
2016-Aug-26 10:23 015 2 gusting 6 16.7
2016-Aug-26 09:23 032 6 gusting 8 16.1
2016-Aug-26 08:23 042 5 gusting 6 16.7
2016-Aug-26 07:23 035 2 gusting 3 16.7
2016-Aug-26 06:23 017 1 gusting 5 16.7
2016-Aug-26 05:23 343 2 gusting 7 16.7
2016-Aug-26 04:23 306 5 gusting 10 16.7
2016-Aug-26 03:23 329 4 gusting 10 16.7
2016-Aug-26 02:23 315 5 gusting 11 17.2
2016-Aug-26 01:23 305 6 gusting 11 17.8
2016-Aug-26 00:23 304 6 gusting 13 18.9
2016-Aug-25 23:23 308 6 gusting 11 18.9
2016-Aug-25 22:23 333 5 gusting 9 18.3
2016-Aug-25 21:23 334 6 gusting 10 18.9
2016-Aug-25 20:23 315 3 gusting 6 20.0
2016-Aug-25 19:23 295 4 gusting 6 19.4
2016-Aug-25 18:23 337 3 gusting 5 18.3
2016-Aug-25 17:23 351 0 gusting 5 17.8
2016-Aug-25 16:23 347 4 gusting 8 16.7
2016-Aug-25 15:23 350 4 gusting 9 16.7
2016-Aug-25 14:23 334 6 gusting 9 16.1
2016-Aug-25 13:23 341 5 gusting 9 16.1
2016-Aug-25 12:23 345 6 gusting 8 16.1
2016-Aug-25 11:23 012 6 gusting 10 16.7
2016-Aug-25 10:23 026 6 gusting 9 16.7
2016-Aug-25 09:23 342 4 gusting 12 17.2
2016-Aug-25 08:23 329 8 gusting 13 16.1